Location: Berkeley
(37.8716°N, 122.2727°W)
Time: 16:44:48
(UTC-07:00)

N. Korean satellite - Pass Details

Date: 28 March 2019
Orbit: 458 x 508 km, 97.2° (Epoch: 25 April)

Event Time Altitude Azimuth Distance (km) Brightness Sun altitude
Rises 06:11:16 0° 37° (NE) 2,553 11.1 -10.5°
Reaches altitude 10° 06:14:38 10° 72° (ENE) 1,680 10.9 -9.8°
Maximum altitude 06:15:54 12° 92° (E) 1,590 10.6 -9.6°
Drops below altitude 10° 06:17:10 10° 113° (ESE) 1,685 10.2 -9.3°
Sets 06:20:33 0° 147° (SSE) 2,573 10.6 -8.7°
